Year,Month,Day,Hour,Minute,Value (Times are PST for temperature in C)
2015,05,27,00,00,12.80
2015,05,27,00,01,12.80
2015,05,27,00,02,12.80
2015,05,27,00,03,12.80
2015,05,27,00,04,12.80
2015,05,27,00,05,12.80
2015,05,27,00,06,12.80
2015,05,27,00,07,12.80
2015,05,27,00,08,12.80
2015,05,27,00,09,12.80
2015,05,27,00,10,12.80
2015,05,27,00,11,12.80
2015,05,27,00,12,12.80
2015,05,27,00,13,12.80
2015,05,27,00,14,12.80
2015,05,27,00,15,12.80
2015,05,27,00,16,12.80
2015,05,27,00,17,12.80
2015,05,27,00,18,12.80
2015,05,27,00,19,12.80
2015,05,27,00,20,12.80
2015,05,27,00,21,12.80
2015,05,27,00,22,12.80
2015,05,27,00,23,12.80
2015,05,27,00,24,12.80
2015,05,27,00,25,12.80
2015,05,27,00,26,12.80
2015,05,27,00,27,12.80
2015,05,27,00,28,12.80
2015,05,27,00,29,12.80
2015,05,27,00,30,12.80
2015,05,27,00,31,12.80
2015,05,27,00,32,12.80
2015,05,27,00,33,12.80
2015,05,27,00,34,12.80
2015,05,27,00,35,12.80
2015,05,27,00,36,12.80
2015,05,27,00,37,12.80
2015,05,27,00,38,12.80
2015,05,27,00,39,12.70
2015,05,27,00,40,12.70
2015,05,27,00,41,12.70
2015,05,27,00,42,12.70
2015,05,27,00,43,12.70
2015,05,27,00,44,12.70
2015,05,27,00,45,12.70
2015,05,27,00,46,12.70
2015,05,27,00,47,12.70
2015,05,27,00,48,12.70
2015,05,27,00,49,12.70
2015,05,27,00,50,12.70
2015,05,27,00,51,12.70
2015,05,27,00,52,12.70
2015,05,27,00,53,12.70
2015,05,27,00,54,12.70
2015,05,27,00,55,12.70
2015,05,27,00,56,12.70
2015,05,27,00,57,12.60
2015,05,27,00,58,12.60
2015,05,27,00,59,12.60
2015,05,27,01,00,12.60
2015,05,27,01,01,12.50
2015,05,27,01,02,12.50
2015,05,27,01,03,12.40
2015,05,27,01,04,12.40
2015,05,27,01,05,12.40
2015,05,27,01,06,12.40
2015,05,27,01,07,12.30
2015,05,27,01,08,12.30
2015,05,27,01,09,12.30
2015,05,27,01,10,12.30
2015,05,27,01,11,12.30
2015,05,27,01,12,12.30
2015,05,27,01,13,12.30
2015,05,27,01,14,12.30
2015,05,27,01,15,12.30
2015,05,27,01,16,12.30
2015,05,27,01,17,12.30
2015,05,27,01,18,12.30
2015,05,27,01,19,12.30
2015,05,27,01,20,12.30
2015,05,27,01,21,12.30
2015,05,27,01,22,12.30
2015,05,27,01,23,12.30
2015,05,27,01,24,12.30
2015,05,27,01,25,12.20
2015,05,27,01,26,12.20
2015,05,27,01,27,12.30
2015,05,27,01,28,12.20
2015,05,27,01,29,12.20
2015,05,27,01,30,12.30
2015,05,27,01,31,12.30
2015,05,27,01,32,12.20
2015,05,27,01,33,12.20
2015,05,27,01,34,12.20
2015,05,27,01,35,12.20
2015,05,27,01,36,12.20
2015,05,27,01,37,12.20
2015,05,27,01,38,12.20
2015,05,27,01,39,12.20
2015,05,27,01,40,12.20
2015,05,27,01,41,12.20
2015,05,27,01,42,12.20
2015,05,27,01,43,12.20
2015,05,27,01,44,12.20
2015,05,27,01,45,12.20
2015,05,27,01,46,12.10
2015,05,27,01,47,12.10
2015,05,27,01,48,12.10
2015,05,27,01,49,12.10
2015,05,27,01,50,12.10
2015,05,27,01,51,12.10
2015,05,27,01,52,12.00
2015,05,27,01,53,12.00
2015,05,27,01,54,12.00
2015,05,27,01,55,11.90
2015,05,27,01,56,11.90
2015,05,27,01,57,11.90
2015,05,27,01,58,11.90
2015,05,27,01,59,11.90
2015,05,27,02,00,11.90
2015,05,27,02,01,11.90
2015,05,27,02,02,11.80
2015,05,27,02,03,11.80
2015,05,27,02,04,11.80
2015,05,27,02,05,11.80
2015,05,27,02,06,11.80
2015,05,27,02,07,11.80
2015,05,27,02,08,11.80
2015,05,27,02,09,11.80
2015,05,27,02,10,11.70
2015,05,27,02,11,11.70
2015,05,27,02,12,11.70
2015,05,27,02,13,11.70
2015,05,27,02,14,11.70
2015,05,27,02,15,11.70
2015,05,27,02,16,11.70
2015,05,27,02,17,11.60
2015,05,27,02,18,11.60
2015,05,27,02,19,11.60
2015,05,27,02,20,11.60
2015,05,27,02,21,11.60
2015,05,27,02,22,11.60
2015,05,27,02,23,11.60
2015,05,27,02,24,11.60
2015,05,27,02,25,11.50
2015,05,27,02,26,11.50
2015,05,27,02,27,11.50
2015,05,27,02,28,11.50
2015,05,27,02,29,11.50
2015,05,27,02,30,11.50
2015,05,27,02,31,11.50
2015,05,27,02,32,11.50
2015,05,27,02,33,11.50
2015,05,27,02,34,11.50
2015,05,27,02,35,11.50
2015,05,27,02,36,11.50
2015,05,27,02,37,11.50
2015,05,27,02,38,11.50
2015,05,27,02,39,11.40
2015,05,27,02,40,11.40
2015,05,27,02,41,11.40
2015,05,27,02,42,11.40
2015,05,27,02,43,11.40
2015,05,27,02,44,11.40
2015,05,27,02,45,11.40
2015,05,27,02,46,11.40
2015,05,27,02,47,11.40
2015,05,27,02,48,11.40
2015,05,27,02,49,11.40
2015,05,27,02,50,11.40
2015,05,27,02,51,11.40
2015,05,27,02,52,11.40
2015,05,27,02,53,11.40
2015,05,27,02,54,11.40
2015,05,27,02,55,11.40
2015,05,27,02,56,11.40
2015,05,27,02,57,11.40
2015,05,27,02,58,11.40
2015,05,27,02,59,11.40
2015,05,27,03,00,11.40
2015,05,27,03,01,11.40
2015,05,27,03,02,11.40
2015,05,27,03,06,11.30
2015,05,27,03,07,11.30
2015,05,27,03,08,11.30
2015,05,27,03,09,11.30
2015,05,27,03,10,11.30
2015,05,27,03,11,11.30
2015,05,27,03,12,11.30
2015,05,27,03,13,11.30
2015,05,27,03,14,11.20
2015,05,27,03,15,11.20
2015,05,27,03,16,11.20
2015,05,27,03,17,11.20
2015,05,27,03,18,11.20
2015,05,27,03,19,11.20
2015,05,27,03,20,11.20
2015,05,27,03,21,11.20
2015,05,27,03,22,11.20
2015,05,27,03,23,11.20
2015,05,27,03,24,11.20
2015,05,27,03,25,11.20
2015,05,27,03,26,11.20
2015,05,27,03,27,11.20
2015,05,27,03,28,11.20
2015,05,27,03,29,11.20
2015,05,27,03,30,11.20
2015,05,27,03,31,11.20
2015,05,27,03,32,11.20
2015,05,27,03,33,11.20
2015,05,27,03,34,11.20
2015,05,27,03,35,11.20
2015,05,27,03,36,11.20
2015,05,27,03,37,11.20
2015,05,27,03,38,11.30
2015,05,27,03,39,11.30
2015,05,27,03,40,11.30
2015,05,27,03,41,11.30
2015,05,27,03,42,11.30
2015,05,27,03,43,11.30
2015,05,27,03,44,11.30
2015,05,27,03,45,11.30
2015,05,27,03,46,11.30
2015,05,27,03,47,11.20
2015,05,27,03,48,11.20
2015,05,27,03,49,11.20
2015,05,27,03,50,11.20
2015,05,27,03,51,11.20
2015,05,27,03,52,11.20
2015,05,27,03,53,11.20
2015,05,27,03,54,11.20
2015,05,27,03,55,11.20
2015,05,27,03,56,11.20
2015,05,27,03,57,11.20
2015,05,27,03,58,11.20
2015,05,27,03,59,11.20
2015,05,27,04,00,11.20
2015,05,27,04,01,11.20
2015,05,27,04,02,11.30
2015,05,27,04,03,11.30
2015,05,27,04,04,11.30
2015,05,27,04,05,11.30
2015,05,27,04,06,11.30
2015,05,27,04,07,11.20
2015,05,27,04,08,11.20
2015,05,27,04,09,11.30
2015,05,27,04,10,11.30
2015,05,27,04,11,11.30
2015,05,27,04,12,11.30
2015,05,27,04,13,11.30
2015,05,27,04,14,11.30
2015,05,27,04,15,11.30
2015,05,27,04,16,11.30
2015,05,27,04,17,11.30
2015,05,27,04,18,11.30
2015,05,27,04,19,11.30
2015,05,27,04,20,11.30
2015,05,27,04,21,11.30
2015,05,27,04,22,11.30
2015,05,27,04,23,11.30
2015,05,27,04,24,11.30
2015,05,27,04,25,11.30
2015,05,27,04,26,11.30
2015,05,27,04,27,11.30
2015,05,27,04,28,11.30
2015,05,27,04,29,11.30
2015,05,27,04,30,11.30
2015,05,27,04,31,11.30
2015,05,27,04,32,11.30
2015,05,27,04,33,11.30
2015,05,27,04,34,11.30
2015,05,27,04,35,11.30
2015,05,27,04,36,11.30
2015,05,27,04,37,11.30
2015,05,27,04,38,11.30
2015,05,27,04,39,11.30
2015,05,27,04,40,11.30
2015,05,27,04,41,11.30
2015,05,27,04,42,11.30
2015,05,27,04,43,11.30
2015,05,27,04,44,11.30
2015,05,27,04,45,11.40
2015,05,27,04,46,11.40
2015,05,27,04,47,11.40
2015,05,27,04,48,11.40
2015,05,27,04,49,11.40
2015,05,27,04,50,11.40
2015,05,27,04,51,11.40
2015,05,27,04,52,11.40
2015,05,27,04,53,11.40
2015,05,27,04,54,11.40
2015,05,27,04,55,11.40
2015,05,27,04,56,11.40
2015,05,27,04,57,11.40
2015,05,27,04,58,11.30
2015,05,27,04,59,11.30
2015,05,27,05,00,11.40
2015,05,27,05,01,11.40
2015,05,27,05,02,11.40
2015,05,27,05,03,11.40
2015,05,27,05,04,11.40
2015,05,27,05,05,11.40
2015,05,27,05,06,11.40
2015,05,27,05,07,11.40
2015,05,27,05,08,11.40
2015,05,27,05,09,11.40
2015,05,27,05,10,11.40
2015,05,27,05,11,11.40
2015,05,27,05,12,11.40
2015,05,27,05,13,11.40
2015,05,27,05,14,11.40
2015,05,27,05,15,11.40
2015,05,27,05,16,11.40
2015,05,27,05,17,11.40
2015,05,27,05,18,11.40
2015,05,27,05,19,11.40
2015,05,27,05,20,11.40
2015,05,27,05,21,11.40
2015,05,27,05,22,11.40
2015,05,27,05,23,11.40
2015,05,27,05,24,11.40
2015,05,27,05,25,11.40
2015,05,27,05,26,11.40
2015,05,27,05,27,11.40
2015,05,27,05,28,11.40
2015,05,27,05,29,11.40
2015,05,27,05,30,11.40
2015,05,27,05,31,11.30
2015,05,27,05,32,11.30
2015,05,27,05,33,11.30
2015,05,27,05,34,11.30
2015,05,27,05,35,11.30
2015,05,27,05,36,11.30
2015,05,27,05,37,11.30
2015,05,27,05,38,11.30
2015,05,27,05,39,11.30
2015,05,27,05,40,11.30
2015,05,27,05,41,11.30
2015,05,27,05,42,11.30
2015,05,27,05,43,11.40
2015,05,27,05,44,11.30
2015,05,27,05,45,11.40
2015,05,27,05,46,11.40
2015,05,27,05,47,11.40
2015,05,27,05,48,11.40
2015,05,27,05,49,11.40
2015,05,27,05,50,11.40
2015,05,27,05,51,11.40
2015,05,27,05,52,11.40
2015,05,27,05,53,11.40
2015,05,27,05,54,11.40
2015,05,27,05,55,11.40
2015,05,27,05,56,11.40
2015,05,27,05,57,11.40
2015,05,27,05,58,11.50
2015,05,27,05,59,11.50
2015,05,27,06,00,11.50
2015,05,27,06,01,11.50
2015,05,27,06,02,11.50
2015,05,27,06,03,11.50
2015,05,27,06,04,11.50
2015,05,27,06,05,11.50
2015,05,27,06,06,11.50
2015,05,27,06,07,11.50
2015,05,27,06,08,11.60
2015,05,27,06,09,11.60
2015,05,27,06,10,11.60
2015,05,27,06,11,11.60
2015,05,27,06,12,11.60
2015,05,27,06,13,11.60
2015,05,27,06,14,11.60
2015,05,27,06,15,11.60
2015,05,27,06,16,11.60
2015,05,27,06,17,11.60
2015,05,27,06,18,11.60
2015,05,27,06,19,11.60
2015,05,27,06,20,11.60
2015,05,27,06,21,11.60
2015,05,27,06,22,11.60
2015,05,27,06,23,11.60
2015,05,27,06,24,11.60
2015,05,27,06,25,11.60
2015,05,27,06,26,11.60
2015,05,27,06,27,11.60
2015,05,27,06,28,11.60
2015,05,27,06,29,11.60
2015,05,27,06,30,11.60
2015,05,27,06,31,11.60
2015,05,27,06,32,11.60
2015,05,27,06,33,11.60
2015,05,27,06,34,11.60
2015,05,27,06,35,11.60
2015,05,27,06,36,11.60
2015,05,27,06,37,11.60
2015,05,27,06,38,11.60
2015,05,27,06,39,11.60
2015,05,27,06,40,11.60
2015,05,27,06,41,11.60
2015,05,27,06,42,11.60
2015,05,27,06,43,11.60
2015,05,27,06,44,11.60
2015,05,27,06,45,11.70
2015,05,27,06,46,11.70
2015,05,27,06,47,11.70
2015,05,27,06,48,11.70
2015,05,27,06,49,11.70
2015,05,27,06,50,11.70
2015,05,27,06,51,11.70
2015,05,27,06,52,11.70
2015,05,27,06,53,11.70
2015,05,27,06,54,11.70
2015,05,27,06,55,11.70
2015,05,27,06,56,11.70
2015,05,27,06,57,11.70
2015,05,27,06,58,11.70
2015,05,27,06,59,11.70
2015,05,27,07,00,11.70
2015,05,27,07,01,11.70
2015,05,27,07,02,11.70
2015,05,27,07,03,11.70
2015,05,27,07,04,11.80
2015,05,27,07,05,11.80
2015,05,27,07,06,11.80
2015,05,27,07,07,11.80
2015,05,27,07,08,11.80
2015,05,27,07,09,11.80
2015,05,27,07,10,11.80
2015,05,27,07,11,11.80
2015,05,27,07,12,11.80
2015,05,27,07,13,11.80
2015,05,27,07,14,11.90
2015,05,27,07,15,11.90
2015,05,27,07,16,11.90
2015,05,27,07,17,11.90
2015,05,27,07,18,11.90
2015,05,27,07,19,11.90
2015,05,27,07,20,12.00
2015,05,27,07,21,12.00
2015,05,27,07,22,12.00
2015,05,27,07,23,12.00
2015,05,27,07,24,12.10
2015,05,27,07,25,12.10
2015,05,27,07,26,12.10
2015,05,27,07,27,12.20
2015,05,27,07,28,12.20
2015,05,27,07,29,12.20
2015,05,27,07,30,12.20
2015,05,27,07,31,12.20
2015,05,27,07,32,12.20
2015,05,27,07,33,12.20
2015,05,27,07,34,12.20
2015,05,27,07,35,12.20
2015,05,27,07,36,12.20
2015,05,27,07,37,12.20
2015,05,27,07,38,12.20
2015,05,27,07,39,12.30
2015,05,27,07,40,12.30
2015,05,27,07,41,12.30
2015,05,27,07,42,12.30
2015,05,27,07,43,12.30
2015,05,27,07,44,12.30
2015,05,27,07,45,12.30
2015,05,27,07,46,12.30
2015,05,27,07,47,12.40
2015,05,27,07,48,12.40
2015,05,27,07,49,12.40
2015,05,27,07,50,12.40
2015,05,27,07,51,12.40
2015,05,27,07,52,12.40
2015,05,27,07,53,12.40
2015,05,27,07,54,12.40
2015,05,27,07,55,12.40
2015,05,27,07,56,12.50
2015,05,27,07,57,12.50
2015,05,27,07,58,12.50
2015,05,27,07,59,12.60
2015,05,27,08,00,12.60
2015,05,27,08,01,12.60
2015,05,27,08,02,12.70
2015,05,27,08,03,12.70
2015,05,27,08,04,12.70
2015,05,27,08,05,12.70
2015,05,27,08,06,12.70
2015,05,27,08,07,12.70
2015,05,27,08,08,12.70
2015,05,27,08,09,12.70
2015,05,27,08,10,12.70
2015,05,27,08,11,12.70
2015,05,27,08,12,12.70
2015,05,27,08,13,12.70
2015,05,27,08,14,12.70
2015,05,27,08,15,12.70
2015,05,27,08,16,12.70
2015,05,27,08,17,12.80
2015,05,27,08,18,12.70
2015,05,27,08,19,12.70
2015,05,27,08,20,12.70
2015,05,27,08,21,12.70
2015,05,27,08,22,12.70
2015,05,27,08,23,12.80
2015,05,27,08,24,12.80
2015,05,27,08,25,12.80
2015,05,27,08,26,12.80
2015,05,27,08,27,12.70
2015,05,27,08,28,12.80
2015,05,27,08,29,12.80
2015,05,27,08,30,12.90
2015,05,27,08,31,12.90
2015,05,27,08,32,12.90
2015,05,27,08,33,12.90
2015,05,27,08,34,12.90
2015,05,27,08,35,12.90
2015,05,27,08,36,12.90
2015,05,27,08,37,12.90
2015,05,27,08,38,12.90
2015,05,27,08,39,13.00
2015,05,27,08,40,13.00
2015,05,27,08,41,13.00
2015,05,27,08,42,13.00
2015,05,27,08,43,13.00
2015,05,27,08,44,13.00
2015,05,27,08,45,13.00
2015,05,27,08,46,13.10
2015,05,27,08,47,13.10
2015,05,27,08,48,13.10
2015,05,27,08,49,13.10
2015,05,27,08,50,13.10
2015,05,27,08,51,13.20
2015,05,27,08,52,13.20
2015,05,27,08,53,13.10
2015,05,27,08,54,13.10
2015,05,27,08,55,13.10
2015,05,27,08,56,13.10
2015,05,27,08,57,13.20
2015,05,27,08,58,13.20
2015,05,27,08,59,13.20
2015,05,27,09,00,13.30
2015,05,27,09,01,13.40
2015,05,27,09,02,13.40
2015,05,27,09,03,13.50
2015,05,27,09,04,13.50
2015,05,27,09,05,13.60
2015,05,27,09,06,13.60
2015,05,27,09,07,13.70
2015,05,27,09,08,13.80
2015,05,27,09,09,13.90
2015,05,27,09,10,13.90
2015,05,27,09,11,14.00
2015,05,27,09,12,14.10
2015,05,27,09,13,14.10
2015,05,27,09,14,14.10
2015,05,27,09,15,14.20
2015,05,27,09,16,14.20
2015,05,27,09,17,14.30
2015,05,27,09,18,14.30
2015,05,27,09,19,14.40
2015,05,27,09,20,14.40
2015,05,27,09,21,14.50
2015,05,27,09,22,14.60
2015,05,27,09,23,14.60
2015,05,27,09,24,14.60
2015,05,27,09,25,14.70
2015,05,27,09,26,14.80
2015,05,27,09,27,14.90
2015,05,27,09,28,14.90
2015,05,27,09,29,15.00
2015,05,27,09,30,15.00
2015,05,27,09,31,15.10
2015,05,27,09,32,15.10
2015,05,27,09,33,15.20
2015,05,27,09,34,15.20
2015,05,27,09,35,15.30
2015,05,27,09,36,15.30
2015,05,27,09,37,15.30
2015,05,27,09,38,15.30
2015,05,27,09,39,15.40
2015,05,27,09,40,15.40
2015,05,27,09,41,15.40
2015,05,27,09,42,15.50
2015,05,27,09,43,15.60
2015,05,27,09,44,15.60
2015,05,27,09,45,15.70
2015,05,27,09,46,15.70
2015,05,27,09,47,15.70
2015,05,27,09,48,15.70
2015,05,27,09,49,15.70
2015,05,27,09,50,15.80
2015,05,27,09,51,15.80
2015,05,27,09,52,15.80
2015,05,27,09,53,15.80
2015,05,27,09,54,15.90
2015,05,27,09,55,16.10
2015,05,27,09,56,16.20
2015,05,27,09,57,16.30
2015,05,27,09,58,16.40
2015,05,27,09,59,16.50
2015,05,27,10,00,16.60
2015,05,27,10,01,16.60
2015,05,27,10,02,16.60
2015,05,27,10,03,16.60
2015,05,27,10,04,16.60
2015,05,27,10,05,16.70
2015,05,27,10,06,16.70
2015,05,27,10,07,16.70
2015,05,27,10,08,16.70
2015,05,27,10,09,16.80
2015,05,27,10,10,16.80
2015,05,27,10,11,16.80
2015,05,27,10,12,16.90
2015,05,27,10,13,17.00
2015,05,27,10,14,17.00
2015,05,27,10,15,17.20
2015,05,27,10,16,17.20
2015,05,27,10,17,17.20
2015,05,27,10,18,17.20
2015,05,27,10,19,17.20
2015,05,27,10,20,17.20
2015,05,27,10,21,17.20
2015,05,27,10,22,17.30
2015,05,27,10,23,17.30
2015,05,27,10,24,17.40
2015,05,27,10,25,17.50
2015,05,27,10,26,17.60
2015,05,27,10,27,17.70
2015,05,27,10,28,17.90
2015,05,27,10,29,18.00
2015,05,27,10,30,18.00
2015,05,27,10,31,18.10
2015,05,27,10,32,18.20
2015,05,27,10,33,18.20
2015,05,27,10,34,18.30
2015,05,27,10,35,18.30
2015,05,27,10,36,18.30
2015,05,27,10,37,18.30
2015,05,27,10,38,18.40
2015,05,27,10,39,18.40
2015,05,27,10,40,18.40
2015,05,27,10,41,18.40
2015,05,27,10,42,18.50
2015,05,27,10,43,18.50
2015,05,27,10,44,18.50
2015,05,27,10,45,18.50
2015,05,27,10,46,18.60
2015,05,27,10,47,18.60
2015,05,27,10,48,18.60
2015,05,27,10,49,18.70
2015,05,27,10,50,18.70
2015,05,27,10,51,18.80
2015,05,27,10,52,18.80
2015,05,27,10,53,18.80
2015,05,27,10,54,18.80
2015,05,27,10,55,18.90
2015,05,27,10,56,18.90
2015,05,27,10,57,19.00
2015,05,27,10,58,19.10
2015,05,27,10,59,19.20
2015,05,27,11,00,19.30
2015,05,27,11,01,19.30
2015,05,27,11,02,19.40
2015,05,27,11,03,19.40
2015,05,27,11,04,19.40
2015,05,27,11,05,19.40
2015,05,27,11,06,19.40
2015,05,27,11,07,19.30
2015,05,27,11,08,19.30
2015,05,27,11,09,19.30
2015,05,27,11,10,19.40
2015,05,27,11,11,19.50
2015,05,27,11,12,19.60
2015,05,27,11,13,19.70
2015,05,27,11,14,19.80
2015,05,27,11,15,19.80
2015,05,27,11,16,19.90
2015,05,27,11,17,19.90
2015,05,27,11,18,19.90
2015,05,27,11,19,19.90
2015,05,27,11,20,19.90
2015,05,27,11,21,20.00
2015,05,27,11,22,20.00
2015,05,27,11,23,20.00
2015,05,27,11,24,20.10
2015,05,27,11,25,20.20
2015,05,27,11,26,20.20
2015,05,27,11,27,20.30
2015,05,27,11,28,20.30
2015,05,27,11,29,20.30
2015,05,27,11,30,20.30
2015,05,27,11,31,20.30
2015,05,27,11,32,20.40
2015,05,27,11,33,20.50
2015,05,27,11,34,20.60
2015,05,27,11,35,20.60
2015,05,27,11,36,20.70
2015,05,27,11,37,20.80
2015,05,27,11,38,20.80
2015,05,27,11,39,20.90
2015,05,27,11,40,21.10
2015,05,27,11,41,21.20
2015,05,27,11,42,21.20
2015,05,27,11,43,21.30
2015,05,27,11,44,21.30
2015,05,27,11,45,21.40
2015,05,27,11,46,21.60
2015,05,27,11,47,21.70
2015,05,27,11,48,21.80
2015,05,27,11,49,21.90
2015,05,27,11,50,22.00
2015,05,27,11,51,22.00
2015,05,27,11,52,22.00
2015,05,27,11,53,22.00
2015,05,27,11,54,21.90
2015,05,27,11,55,21.90
2015,05,27,11,56,21.90
2015,05,27,11,57,21.80
2015,05,27,11,58,21.80
2015,05,27,11,59,21.80
2015,05,27,12,00,21.80
2015,05,27,12,01,21.80
2015,05,27,12,02,21.80
2015,05,27,12,03,21.70
2015,05,27,12,04,21.80
2015,05,27,12,05,21.80
2015,05,27,12,06,21.80
2015,05,27,12,07,21.90
2015,05,27,12,08,21.90
2015,05,27,12,09,22.00
2015,05,27,12,10,22.10
2015,05,27,12,11,22.20
2015,05,27,12,12,22.30
2015,05,27,12,13,22.40
2015,05,27,12,14,22.40
2015,05,27,12,15,22.50
2015,05,27,12,16,22.50
2015,05,27,12,17,22.40
2015,05,27,12,18,22.40
2015,05,27,12,19,22.40
2015,05,27,12,20,22.50
2015,05,27,12,21,22.50
2015,05,27,12,22,22.60
2015,05,27,12,23,22.70
2015,05,27,12,24,22.80
2015,05,27,12,25,22.80
2015,05,27,12,26,22.80
2015,05,27,12,27,22.90
2015,05,27,12,28,22.90
2015,05,27,12,29,22.90
2015,05,27,12,30,22.90
2015,05,27,12,31,22.90
2015,05,27,12,32,22.90
2015,05,27,12,33,22.90
2015,05,27,12,34,22.90
2015,05,27,12,35,22.90
2015,05,27,12,36,23.00
2015,05,27,12,37,23.10
2015,05,27,12,38,23.10
2015,05,27,12,39,23.20
2015,05,27,12,40,23.30
2015,05,27,12,41,23.30
2015,05,27,12,42,23.40
2015,05,27,12,43,23.40
2015,05,27,12,44,23.50
2015,05,27,12,45,23.60
2015,05,27,12,46,23.70
2015,05,27,12,47,23.70
2015,05,27,12,48,23.70
2015,05,27,12,49,23.70
2015,05,27,12,50,23.70
2015,05,27,12,51,23.70
2015,05,27,12,52,23.80
2015,05,27,12,53,23.80
2015,05,27,12,54,23.70
2015,05,27,12,55,23.50
2015,05,27,12,56,23.50
2015,05,27,12,57,23.40
2015,05,27,12,58,23.50
2015,05,27,12,59,23.60
2015,05,27,13,00,23.60
2015,05,27,13,01,23.60
2015,05,27,13,02,23.60
2015,05,27,13,03,23.60
2015,05,27,13,04,23.60
2015,05,27,13,05,23.60
2015,05,27,13,06,23.60
2015,05,27,13,07,23.80
2015,05,27,13,08,23.90
2015,05,27,13,09,23.90
2015,05,27,13,10,23.90
2015,05,27,13,11,24.00
2015,05,27,13,12,24.00
2015,05,27,13,13,24.10
2015,05,27,13,14,24.10
2015,05,27,13,15,24.10
2015,05,27,13,16,24.00
2015,05,27,13,17,23.90
2015,05,27,13,18,23.90
2015,05,27,13,19,23.90
2015,05,27,13,20,24.00
2015,05,27,13,21,24.00
2015,05,27,13,22,24.10
2015,05,27,13,23,24.10
2015,05,27,13,24,24.10
2015,05,27,13,25,24.10
2015,05,27,13,26,24.10
2015,05,27,13,27,24.10
2015,05,27,13,28,24.10
2015,05,27,13,29,24.10
2015,05,27,13,30,24.10
2015,05,27,13,31,23.90
2015,05,27,13,32,23.80
2015,05,27,13,33,23.70
2015,05,27,13,34,23.70
2015,05,27,13,35,23.80
2015,05,27,13,36,23.90
2015,05,27,13,37,23.90
2015,05,27,13,38,23.90
2015,05,27,13,39,23.80
2015,05,27,13,40,23.80
2015,05,27,13,41,23.80
2015,05,27,13,42,23.80
2015,05,27,13,43,23.70
2015,05,27,13,44,23.70
2015,05,27,13,45,23.70
2015,05,27,13,46,23.70
2015,05,27,13,47,23.80
2015,05,27,13,48,23.90
2015,05,27,13,49,23.90
2015,05,27,13,50,24.00
2015,05,27,13,51,24.00
2015,05,27,13,52,24.00
2015,05,27,13,53,24.00
2015,05,27,13,54,24.10
2015,05,27,13,55,24.10
2015,05,27,13,56,24.20
2015,05,27,13,57,24.30
2015,05,27,13,58,24.40
2015,05,27,13,59,24.40
2015,05,27,14,00,24.40
2015,05,27,14,01,24.40
2015,05,27,14,02,24.40
2015,05,27,14,03,24.40
2015,05,27,14,04,24.40
2015,05,27,14,05,24.40
2015,05,27,14,06,24.50
2015,05,27,14,07,24.60
2015,05,27,14,08,24.60
2015,05,27,14,09,24.70
2015,05,27,14,10,24.70
2015,05,27,14,11,24.70
2015,05,27,14,12,24.70
2015,05,27,14,13,24.70
2015,05,27,14,14,24.60
2015,05,27,14,15,24.60
2015,05,27,14,16,24.70
2015,05,27,14,17,24.70
2015,05,27,14,18,24.80
2015,05,27,14,19,24.70
2015,05,27,14,20,24.70
2015,05,27,14,21,24.70
2015,05,27,14,22,24.80
2015,05,27,14,23,24.80
2015,05,27,14,24,24.80
2015,05,27,14,25,24.80
2015,05,27,14,26,24.90
2015,05,27,14,27,24.90
2015,05,27,14,28,25.00
2015,05,27,14,29,25.10
2015,05,27,14,30,25.20
2015,05,27,14,31,25.30
2015,05,27,14,32,25.40
2015,05,27,14,33,25.50
2015,05,27,14,34,25.70
2015,05,27,14,35,25.70
2015,05,27,14,36,25.80
2015,05,27,14,37,25.90
2015,05,27,14,38,25.80
2015,05,27,14,39,25.80
2015,05,27,14,40,25.80
2015,05,27,14,41,25.70
2015,05,27,14,42,25.70
2015,05,27,14,43,25.60
2015,05,27,14,44,25.60
2015,05,27,14,45,25.60
2015,05,27,14,46,25.60
2015,05,27,14,47,25.70
2015,05,27,14,48,25.70
2015,05,27,14,49,25.70
2015,05,27,14,50,25.70
2015,05,27,14,51,25.80
2015,05,27,14,52,25.80
2015,05,27,14,53,25.80
2015,05,27,14,54,25.90
2015,05,27,14,55,26.00
2015,05,27,14,56,26.00
2015,05,27,14,57,26.00
2015,05,27,14,58,26.10
2015,05,27,14,59,26.20
2015,05,27,15,00,26.20
2015,05,27,15,01,26.10
2015,05,27,15,02,25.90
2015,05,27,15,03,25.80
2015,05,27,15,04,25.80
2015,05,27,15,05,25.70
2015,05,27,15,06,25.70
2015,05,27,15,07,25.90
2015,05,27,15,08,25.90
2015,05,27,15,09,26.00
2015,05,27,15,10,25.90
2015,05,27,15,11,25.90
2015,05,27,15,12,26.00
2015,05,27,15,13,26.00
2015,05,27,15,14,26.00
2015,05,27,15,15,26.00
2015,05,27,15,16,26.00
2015,05,27,15,17,26.00
2015,05,27,15,18,26.10
2015,05,27,15,19,26.10
2015,05,27,15,20,26.10
2015,05,27,15,21,26.20
2015,05,27,15,22,26.30
2015,05,27,15,23,26.30
2015,05,27,15,24,26.30
2015,05,27,15,25,26.40
2015,05,27,15,26,26.40
2015,05,27,15,27,26.40
2015,05,27,15,28,26.40
2015,05,27,15,29,26.40
2015,05,27,15,30,26.40
2015,05,27,15,31,26.50
2015,05,27,15,32,26.60
2015,05,27,15,33,26.70
2015,05,27,15,34,26.80
2015,05,27,15,35,26.80
2015,05,27,15,36,26.70
2015,05,27,15,37,26.50
2015,05,27,15,38,26.40
2015,05,27,15,39,26.30
2015,05,27,15,40,26.20
2015,05,27,15,41,26.20
2015,05,27,15,42,26.20
2015,05,27,15,43,26.30
2015,05,27,15,44,26.30
2015,05,27,15,45,26.30
2015,05,27,15,46,26.30
2015,05,27,15,47,26.20
2015,05,27,15,48,26.10
2015,05,27,15,49,26.00
2015,05,27,15,50,25.90
2015,05,27,15,51,26.00
2015,05,27,15,52,26.00
2015,05,27,15,53,26.00
2015,05,27,15,54,26.00
2015,05,27,15,55,26.00
2015,05,27,15,56,26.00
2015,05,27,15,57,26.10
2015,05,27,15,58,26.10
2015,05,27,15,59,26.10
2015,05,27,16,00,26.20
2015,05,27,16,01,26.20
2015,05,27,16,02,26.10
2015,05,27,16,03,26.10
2015,05,27,16,04,26.20
2015,05,27,16,05,26.20
2015,05,27,16,06,26.20
2015,05,27,16,07,26.20
2015,05,27,16,08,26.10
2015,05,27,16,09,26.00
2015,05,27,16,10,25.80
2015,05,27,16,11,25.70
2015,05,27,16,12,25.70
2015,05,27,16,13,25.70
2015,05,27,16,14,25.70
2015,05,27,16,15,25.70
2015,05,27,16,16,25.70
2015,05,27,16,17,25.70
2015,05,27,16,18,25.70
2015,05,27,16,19,25.70
2015,05,27,16,20,25.80
2015,05,27,16,21,25.80
2015,05,27,16,22,25.70
2015,05,27,16,23,25.70
2015,05,27,16,24,25.80
2015,05,27,16,25,25.80
2015,05,27,16,26,25.80
2015,05,27,16,27,25.80
2015,05,27,16,28,25.90
2015,05,27,16,29,25.90
2015,05,27,16,30,25.90
2015,05,27,16,31,25.90
2015,05,27,16,32,26.00
2015,05,27,16,33,26.00
2015,05,27,16,34,26.00
2015,05,27,16,35,26.10
2015,05,27,16,36,26.20
2015,05,27,16,37,26.20
2015,05,27,16,38,26.20
2015,05,27,16,39,26.10
2015,05,27,16,40,26.00
2015,05,27,16,41,25.90
2015,05,27,16,42,25.90
2015,05,27,16,43,25.90
2015,05,27,16,44,25.90
2015,05,27,16,45,25.90
2015,05,27,16,46,25.90
2015,05,27,16,47,25.90
2015,05,27,16,48,25.90
2015,05,27,16,49,25.80
2015,05,27,16,50,25.70
2015,05,27,16,51,25.70
2015,05,27,16,52,25.70
2015,05,27,16,53,25.60
2015,05,27,16,54,25.60
2015,05,27,16,55,25.50
2015,05,27,16,56,25.50
2015,05,27,16,57,25.50
2015,05,27,16,58,25.50
2015,05,27,16,59,25.60
2015,05,27,17,00,25.70
2015,05,27,17,01,25.80
2015,05,27,17,02,25.80
2015,05,27,17,03,25.90
2015,05,27,17,04,25.90
2015,05,27,17,05,25.90
2015,05,27,17,06,25.90
2015,05,27,17,07,25.90
2015,05,27,17,08,25.80
2015,05,27,17,09,25.80
2015,05,27,17,10,25.80
2015,05,27,17,11,25.80
2015,05,27,17,12,25.80
2015,05,27,17,13,25.80
2015,05,27,17,14,25.70
2015,05,27,17,15,25.70
2015,05,27,17,16,25.70
2015,05,27,17,17,25.80
2015,05,27,17,18,25.80
2015,05,27,17,19,25.80
2015,05,27,17,20,25.80
2015,05,27,17,21,25.80
2015,05,27,17,22,25.70